Regional Weather Roundup
Issued by NWS Portland, ME

Current Version | Previous Version | Graphics & Text | Print | Product List | Glossary On
Versions: 1 2 3 4 5 6 7 8 9 10 11 12 13 14 15 16 17 18 19 20 21 22 23 24 25 26 27 28 29 30 31 32 33 34 35 36 37 38 39 40 41 42 43 44 45 46 47 48 49 50
000
ASUS41 KGYX 180605
RWRGYX
WEATHER ROUNDUP FOR MAINE AND NEW HAMPSHIRE
NATIONAL WEATHER SERVICE GRAY ME
100 AM EST THU DEC 18 2014

MEZ002-005-006-010-012-015-018-020-021-024-026-027-029-180700-
MAINE

CITY           SKY/WX    TMP DP  RH WIND       PRES   REMARKS
PORTLAND       CLOUDY    39  36  89 CALM      29.64F
6HR MIN TEMP:  38; 6HR MAX TEMP:  39; 6HR PCP: TRACE;

SANFORD        CLOUDY    39  32  75 W8        29.65F
BAR HARBOR     CLOUDY    36  36 100 NW8G16    29.55S
WISCASSET      CLOUDY    36  33  89 MISG      29.63F
6HR MIN TEMP:  35; 6HR MAX TEMP:  37;

ROCKLAND       CLOUDY    36  34  93 W7        29.59S
FRYEBURG       CLOUDY    33  32  96 CALM      29.63F
6HR MIN TEMP:  33; 6HR MAX TEMP:  35; 6HR PCP: TRACE;

LEWISTONAUBURN CLOUDY    36  32  87 CALM      29.62F
AUGUSTA        CLOUDY    33  32  96 NW8       29.62F
6HR MIN TEMP:  33; 6HR MAX TEMP:  34; 6HR PCP: TRACE;

WATERVILLE     CLOUDY    34  30  86 N6        29.59F
BANGOR         LGT SNOW  33  31  92 N10       29.59S FOG
6HR MIN TEMP:  33; 6HR MAX TEMP:  35; 6HR PCP:  0.05;

GREENVILLE       N/A     31  29  92 N12       29.55F
6HR MIN TEMP:  31; 6HR MAX TEMP:  33; 6HR PCP:  0.09;

MILLINOCKET    NOT AVBL
HOULTON        SNOW      30  27  88 N18       29.59F VSB 1/2 WCI  18
6HR MIN TEMP:  30; 6HR MAX TEMP:  32; 6HR PCP:  0.37;

PRESQUE ISLE   CLOUDY    28  25  86 N14       29.66F WCI  17
6HR MIN TEMP:  28; 6HR MAX TEMP:  32; 6HR PCP:  0.02;

FRENCHVILLE    LGT SNOW  26  24  92 NE12      29.69F VSB 3/4 WCI  16
6HR MIN TEMP:  26; 6HR MAX TEMP:  27; 6HR PCP:  0.09;

CARIBOU        LGT SNOW  28  26  92 N12       29.67F FOG     WCI  18
6HR MIN TEMP:  28; 6HR MAX TEMP:  31; 6HR PCP:  0.32;

$$

NHZ002-005-008-009-011-012-014-180700-
NEW HAMPSHIRE

CITY           SKY/WX    TMP DP  RH WIND       PRES   REMARKS
PORTSMOUTH     LGT RAIN  40  35  81 W9        29.66S
ROCHESTER      CLOUDY    39  34  82 VRB7      29.65F
6HR MIN TEMP:  39; 6HR MAX TEMP:  41;

NASHUA         CLOUDY    40  32  73 W7        29.72S
MANCHESTER     MOCLDY    39  32  76 W7        29.68F
6HR MIN TEMP:  39; 6HR MAX TEMP:  44; 6HR PCP: TRACE;

CONCORD        MOCLDY    37  32  82 W9        29.69F
6HR MIN TEMP:  37; 6HR MAX TEMP:  40; 6HR PCP: TRACE;

LACONIA        CLOUDY    37  34  87 W9        29.65F
PLYMOUTH       DRIZZLE   37  37  97 W6        29.67F
BERLIN         FLURRIES  35  31  85 CALM      29.64F
6HR MIN TEMP:  33; 6HR MAX TEMP:  36; 6HR PCP:  0.01;

WHITEFIELD     LGT SNOW  33  32  96 CALM      29.68S FOG
6HR MIN TEMP:  33; 6HR MAX TEMP:  35; 6HR PCP:  0.11;

JAFFREY        CLOUDY    33  30  88 S5        29.70F
6HR MIN TEMP:  33; 6HR MAX TEMP:  39;

KEENE          CLOUDY    34  32  93 CALM      29.73F
LEBANON        FOG       34  32  92 CALM      29.70F VSB 1/2
6HR MIN TEMP:  34; 6HR MAX TEMP:  35; 6HR PCP: TRACE;

MT WASHINGTON  SNOW      16  16 100 NW40        N/A  VSB 1/16WCI  -7
6HR MIN TEMP:  16; 6HR MAX TEMP:  22; 6HR PCP:  0.32;

$$

VTZ005-007-008-180700-
VERMONT

CITY           SKY/WX    TMP DP  RH WIND       PRES   REMARKS
ST JOHNSBURY     N/A     34  33  96 MISG      29.68F
MONTPELIER     CLOUDY    34  31  88 NW5       29.72F
BURLINGTON     LGT RAIN  35  33  92 CALM      29.74F
$$

MAZ007-012-024-CTZ003-RIZ002-NYZ038-NYZ072-180700-
SOUTHERN NEW ENGLAND AND NY

CITY           SKY/WX    TMP DP  RH WIND       PRES   REMARKS
BOSTON         CLOUDY    40  32  73 W15       29.71S
WORCESTER      MOCLDY    34  29  82 W23G35    29.69F
NANTUCKET      CLOUDY    44  35  70 W18G25    29.74S
PROVIDENCE     CLOUDY    38  29  70 W12       29.76S
HARTFORD       CLOUDY    39  30  70 NW12      29.79F
ALBANY         FLURRIES  36  29  75 W14       29.83F
NEW YORK CITY  CLOUDY    42  27  55 NW14G24   29.87F
$$

ANZ081-ANZ082-ANZ150-NHZ014-MEZ023>029-180700-
COASTAL MARINE OBSERVATIONS

STATION/POSITION TIME  TEMP    WIND        PRES    WAVE
                       AIR SEA DIR/SP/G            HT/PER
                 (UTC) (F)     (DEG/KT/KT) (MB)    (FT/S)
MOUNT DESERT ROC 0600   37                  999.5S
MATINICUS ROCK   0500          330/ 20/ 22 1001.3R
PORTLAND WX BUOY 0550   39 45  320/  8/ 10 1003.8F   4/ 8
WELLS            0500   39 39   50/  1/  1 1003.6F
ISLE OF SHOALS   0500   42     290/ 22/ 26 1003.5F
JEFFREYS LEDGE   0521      49                N/A     6/ 8
CASHES LEDGE BUO 0550   41 49  300/ 19/ 23 1001.9    7/ 7
$$

.............KEY..............
   WCI - WIND CHILL
   TC  - TEMPERATURE IN CELSIUS
   VSB - VISIBILITY IN MILES
   HX  - HEAT INDEX
   FAIR- INDICATES FEW OR NO CLOUDS BELOW 12,000 FT, WITH NO
         SIGNIFICANT WEATHER AND/OR OBSTRUCTIONS TO VISIBILITY.




USA.gov is the U.S. government's official web portal to all federal, state and local government web resources and services.